Location: Freistadt
(48.5112°N, 14.5013°E)
Time: 02:22:24
(UTC+02:00)

EO-79 - Pass Details

Date: 24 April 2024
Orbit: 562 x 575 km, 98.0° (Epoch: 28 May)

Event Time Altitude Azimuth Distance (km) Brightness Sun altitude
Rises 04:45:56 0° 8° (N) 2,798 ? -10.9°
Reaches altitude 10° 04:48:08 10° 3° (N) 1,896 ? -10.6°
Maximum altitude 04:52:04 46° 290° (WNW) 777 ? -10.0°
Enters shadow 04:55:49 11° 217° (SW) 1,821 ? -9.5°
